REAL

Last updated on Fri Aug 22 2025 00:02:05 GMT+0000 (Coordinated Universal Time)

1 64875U 25154G 25232.74086457 .00013912 00000+0 67035-3 0 9991 2 64875 97.4452 298.2690 0001914 112.0573 248.0865 15.18841633 4235

Satellite not in orbit

REAL